Weather History for Ord, NE

Change the Weather History Date:

Tuesday, April 5, 2011

  Actual Average Record
Temperature  
Mean Temperature 50 °F 45 °F  
Max Temperature 73 °F 58 °F 75 °F (2006)
Min Temperature 26 °F 32 °F 21 °F (2007)
Degree Days  
Heating Degree Days 15    
Month to date heating degree days 83  
Cooling Degree Days 0    
Month to date cooling degree days 0  
Year to date cooling degree days 0  
Moisture  
Dew Point 27 °F    
Average Humidity 48    
Maximum Humidity 75    
Minimum Humidity 20    
Precipitation  
Precipitation 0.00 in 0.05 in 0.88 in (1947)
Month to date precipitation 0.01 0.26  
Year to date precipitation 3.03 2.52  
Sea Level Pressure  
Sea Level Pressure 29.67 in    
Wind  
Wind Speed 10 mph (WSW)    
Max Wind Speed 26 mph    
Max Gust Speed 33 mph    
Visibility 10 miles    
Events      
T = Trace of Precipitation, MM = Missing Value Source: NWS Daily Summary

Daily Weather History Graph

Daily Weather History Graph

Search for Another Location

Airport:

Trip Planner

Search our weather history database for the weather conditions in past years. The results will help you decide how hot, cold, wet, or windy it might be!

Date:

Astronomy

Apr. 05, 2011 Rise Set
Actual Time 7:12 AM CDT 8:05 PM CDT
Civil Twilight 6:44 AM CDT 8:33 PM CDT
Nautical Twilight 6:10 AM CDT 9:07 PM CDT
Astronomical Twilight 5:36 AM CDT 9:42 PM CDT
Moon 7:49 AM CDT (4/5) 10:32 PM CDT (4/5)
Length of Visible Light 13h 49m
Length of Day
12h 52m
Waxing Crescent, 4% of the Moon is Illuminated
Apr 5
Waxing Crescent
Apr 11
First Quarter
Apr 17
Full
Apr 24
Last Quarter
May 3
New

Hourly Weather History & Observations

Time (CDT) Temp. Windchill Dew Point Humidity Pressure Visibility Wind Dir Wind Speed Gust Speed Precip Events Conditions
12:53 AM 35.1 °F 31.0 °F 21.0 °F 57% 29.92 in 10.0 mi South 4.6 mph - N/A   Overcast
1:53 AM 37.0 °F 32.4 °F 21.9 °F 54% 29.90 in 10.0 mi SSW 5.8 mph - N/A   Overcast
2:53 AM 39.9 °F 34.5 °F 19.9 °F 45% 29.85 in 10.0 mi SSW 8.1 mph - N/A   Overcast
3:53 AM 35.1 °F 27.9 °F 21.0 °F 57% 29.83 in 10.0 mi SSW 9.2 mph - N/A   Partly Cloudy
4:53 AM 32.0 °F - 21.9 °F 66% 29.83 in 10.0 mi Calm Calm - N/A   Clear
5:53 AM 26.1 °F 20.5 °F 19.9 °F 78% 29.84 in 10.0 mi SW 4.6 mph - N/A   Clear
6:53 AM 30.0 °F 23.2 °F 23.0 °F 75% 29.81 in 10.0 mi SSW 6.9 mph - N/A   Clear
7:53 AM 32.0 °F - 24.1 °F 73% 29.83 in 10.0 mi Calm Calm - N/A   Clear
8:53 AM 42.1 °F 40.2 °F 30.0 °F 62% 29.83 in 10.0 mi Variable 3.5 mph - N/A   Clear
9:53 AM 51.1 °F - 28.9 °F 43% 29.81 in 10.0 mi West 8.1 mph - N/A   Clear
10:53 AM 54.0 °F - 28.9 °F 38% 29.78 in 10.0 mi SW 8.1 mph - N/A   Clear
11:53 AM 59.0 °F - 28.0 °F 31% 29.75 in 10.0 mi West 5.8 mph - N/A   Clear
12:53 PM 63.0 °F - 28.9 °F 28% 29.70 in 7.0 mi West 11.5 mph 17.3 mph N/A   Clear
1:53 PM 64.9 °F - 27.0 °F 24% 29.67 in 10.0 mi SW 11.5 mph 24.2 mph N/A   Clear
2:53 PM 69.1 °F - 27.0 °F 21% 29.62 in 10.0 mi WSW 17.3 mph 25.3 mph N/A   Clear
3:53 PM 71.1 °F - 28.0 °F 20% 29.58 in 10.0 mi SW 19.6 mph 25.3 mph N/A   Clear
4:53 PM 70.0 °F - 28.9 °F 22% 29.54 in 10.0 mi West 11.5 mph - N/A   Partly Cloudy
5:53 PM 69.1 °F - 32.0 °F 25% 29.51 in 10.0 mi South 6.9 mph - N/A   Mostly Cloudy
6:53 PM 72.0 °F - 30.0 °F 21% 29.47 in 10.0 mi WSW 15.0 mph - N/A   Partly Cloudy
7:53 PM 71.1 °F - 30.0 °F 22% 29.45 in 10.0 mi West 13.8 mph - N/A   Clear
8:53 PM 66.0 °F - 30.9 °F 27% 29.45 in 10.0 mi WSW 10.4 mph - N/A   Partly Cloudy
9:53 PM 66.0 °F - 32.0 °F 28% 29.46 in 10.0 mi WSW 12.7 mph - N/A   Clear
10:53 PM 63.0 °F - 33.1 °F 33% 29.47 in 10.0 mi WSW 10.4 mph - N/A   Partly Cloudy
11:46 PM 55.4 °F - 35.6 °F 47% 29.53 in 10.0 mi North 25.3 mph 33.4 mph N/A   Clear
11:53 PM 53.1 °F - 35.1 °F 50% 29.54 in 10.0 mi North 23.0 mph 31.1 mph N/A   Clear